Weather History for KSLN - May, 2013

Change the Weather History Date:

Tuesday, May 28, 2013

  Actual Average Record
Temperature  
Mean Temperature 80 °F 69 °F  
Max Temperature 92 °F 80 °F 99 °F (1928)
Min Temperature 68 °F 58 °F 40 °F (1992)
Degree Days  
Heating Degree Days 0 1  
Month to date heating degree days 127 93  
Since 1 July heating degree days 4917 4861  
Cooling Degree Days 15 5  
Month to date cooling degree days 102 85  
Year to date cooling degree days 117 110  
Growing Degree Days 30 (Base 50)    
Moisture  
Dew Point 67 °F    
Average Humidity 67    
Maximum Humidity 90    
Minimum Humidity 44    
Precipitation  
Precipitation 0.15 in 0.18 in 5.25 in (1903)
Month to date precipitation 2.92 4.23  
Year to date precipitation 9.14 11.47  
Sea Level Pressure  
Sea Level Pressure 29.61 in    
Wind  
Wind Speed 15 mph (SSE)    
Max Wind Speed 36 mph    
Max Gust Speed 45 mph    
Visibility 10 miles    
Events Rain , Thunderstorm    
T = Trace of Precipitation, MM = Missing Value Source: NWS Daily Summary

Daily Weather History Graph

Daily Weather History Graph

Search for Another Location

Airport or City:

Trip Planner

Search our weather history database for the weather conditions in past years. The results will help you decide how hot, cold, wet, or windy it might be!

Date:

Astronomy

May. 28, 2013 Rise Set
Actual Time 6:09 AM CDT 8:47 PM CDT
Civil Twilight 5:38 AM CDT 9:18 PM CDT
Nautical Twilight 4:59 AM CDT 9:57 PM CDT
Astronomical Twilight 4:15 AM CDT 10:40 PM CDT
Moon No Moon Rise 9:57 AM CDT
Length of Visible Light 15h 40m
Length of Day
14h 38m
Waning Gibbous, 82% of the Moon is Illuminated
May 28
Waning Gibbous
May 31
Last Quarter
Jun 8
New
Jun 16
First Quarter
Jun 23
Full

Hourly Weather History & Observations

Time (CDT) Temp. Heat Index Dew Point Humidity Pressure Visibility Wind Dir Wind Speed Gust Speed Precip Events Conditions
12:53 AM 73.9 °F - 66.0 °F 76% 29.61 in 10.0 mi SW 8.1 mph 18.4 mph N/A   Clear
1:53 AM 73.0 °F - 66.0 °F 79% 29.60 in 10.0 mi South 13.8 mph 21.9 mph N/A   Clear
2:53 AM 71.1 °F - 66.0 °F 84% 29.57 in 10.0 mi South 11.5 mph - N/A   Clear
3:53 AM 70.0 °F - 66.0 °F 87% 29.58 in 10.0 mi South 5.8 mph - N/A   Clear
4:53 AM 70.0 °F - 66.0 °F 87% 29.60 in 10.0 mi South 5.8 mph - N/A   Clear
5:53 AM 69.1 °F - 64.9 °F 87% 29.62 in 10.0 mi NNE 3.5 mph - N/A   Clear
6:53 AM 71.1 °F - 66.0 °F 84% 29.63 in 10.0 mi NE 4.6 mph - N/A   Mostly Cloudy
7:53 AM 72.0 °F - 66.9 °F 84% 29.64 in 10.0 mi East 5.8 mph - N/A   Overcast
8:31 AM 73.4 °F - 68.0 °F 83% 29.68 in 10.0 mi SE 5.8 mph - N/A   Mostly Cloudy
8:53 AM 75.9 °F - 68.0 °F 76% 29.64 in 10.0 mi SSE 8.1 mph - N/A   Mostly Cloudy
9:53 AM 77.0 °F - 68.0 °F 74% 29.62 in 10.0 mi South 8.1 mph 17.3 mph N/A   Overcast
10:53 AM 78.1 °F - 68.0 °F 71% 29.61 in 10.0 mi South 16.1 mph 20.7 mph N/A   Overcast
11:48 AM 80.6 °F 83.9 °F 69.8 °F 70% 29.64 in 10.0 mi South 17.3 mph - N/A   Scattered Clouds
11:53 AM 81.0 °F 84.1 °F 69.1 °F 67% 29.60 in 10.0 mi South 12.7 mph 24.2 mph N/A   Scattered Clouds
12:53 PM 82.9 °F 85.8 °F 68.0 °F 60% 29.61 in 10.0 mi SSW 15.0 mph - N/A   Mostly Cloudy
1:53 PM 88.0 °F 90.7 °F 66.9 °F 49% 29.60 in 10.0 mi South 13.8 mph 25.3 mph N/A   Scattered Clouds
2:53 PM 88.0 °F 91.4 °F 68.0 °F 51% 29.59 in 10.0 mi SSE 15.0 mph 18.4 mph N/A   Scattered Clouds
3:53 PM 91.9 °F 95.4 °F 66.9 °F 44% 29.56 in 10.0 mi SSE 17.3 mph 26.5 mph N/A   Partly Cloudy
4:53 PM 86.0 °F 91.5 °F 71.1 °F 61% 29.53 in 10.0 mi SSE 31.1 mph 38.0 mph N/A   Scattered Clouds
5:53 PM 87.1 °F 92.8 °F 71.1 °F 59% 29.51 in 10.0 mi SSE 25.3 mph 35.7 mph N/A   Partly Cloudy
6:31 PM 82.4 °F 86.3 °F 69.8 °F 66% 29.53 in 10.0 mi SSE 27.6 mph 36.8 mph N/A Thunderstorm Thunderstorm
6:53 PM 82.0 °F 84.9 °F 68.0 °F 62% 29.56 in 10.0 mi SSE 24.2 mph 32.2 mph N/A Thunderstorm Thunderstorm
7:53 PM 75.9 °F - 66.9 °F 74% 29.65 in 5.0 mi South 20.7 mph 31.1 mph 0.05 in Rain , Thunderstorm Heavy Thunderstorms and Rain
8:53 PM 75.0 °F - 66.9 °F 76% 29.65 in 10.0 mi SSE 17.3 mph 25.3 mph 0.10 in Thunderstorm Thunderstorm
9:03 PM 75.2 °F - 66.2 °F 73% 29.69 in 10.0 mi SSE 19.6 mph 24.2 mph N/A   Clear
9:53 PM 73.9 °F - 66.0 °F 76% 29.64 in 10.0 mi SSE 19.6 mph 26.5 mph N/A   Clear
10:53 PM 75.0 °F - 64.9 °F 71% 29.58 in 10.0 mi South 24.2 mph 35.7 mph N/A   Clear
11:53 PM 73.9 °F - 66.0 °F 76% 29.61 in 10.0 mi South 18.4 mph 32.2 mph N/A   Clear